Regional Weather Roundup
Issued by NWS

Home | Current Version | Previous Version | Text Only | Print | Product List | Glossary On
Versions: 1 2 3 4 5 6 7 8 9 10 11 12 13 14 15 16 17 18 19 20 21 22 23 24 25 26 27
000
ASUS45 KTFX 250710
RWRMT
MONTANA REGIONAL WEATHER ROUNDUP
NATIONAL WEATHER SERVICE GREAT FALLS MT
1200 AM MST SAT NOV 25 2017

NOTE: "FAIR" INDICATES FEW OR NO CLOUDS BELOW 12000 FEET WITH NO
SIGNIFICANT WEATHER AND/OR OBSTRUCTIONS TO VISIBILITY.

MTZ001>007-043-250800-
WEST OF THE DIVIDE

CITY           SKY/WX    TMP DP  RH WIND       PRES   REMARKS
KALISPELL      CLOUDY    38  31  76 S8        30.11S
MISSOULA       FAIR      32  27  81 SE8       30.16S WCI  25
BUTTE          FAIR      27  19  72 NW5       30.11F
MULLAN PASS    CLOUDY    27  24  89 SW7       30.06R WCI  19
ANACONDA         N/A     25  19  80 W5        30.12R
DEER LODGE       N/A     28  23  80 CALM      30.15R
EUREKA           N/A     39  28  65 MISG      30.09R
HAMILTON         N/A     30  25  80 S8        30.16S WCI  23
LIBBY            N/A     32  28  86 CALM      30.09S
$$

MTZ008-052>055-250800-
SOUTHWEST MONTANA

CITY           SKY/WX    TMP DP  RH WIND       PRES   REMARKS
BOZEMAN        FAIR      26  22  84 MISG      30.11R
DILLON         FAIR      28  21  75 W6        30.10S WCI  22
W YELLOWSTONE  FAIR      32  27  80 CALM      30.15F
ENNIS          CLOUDY    36  30  80 S7        30.14S WCI  30
TWIN BRIDGES     N/A     30  18  61 CALM      30.08S
$$

MTZ009-010-012-014-046-048-049-054-250800-
EAST SLOPES AND CENTRAL MONTANA

CITY           SKY/WX    TMP DP  RH WIND       PRES   REMARKS
CUT BANK       FAIR      38  20  48 W25G32    29.95R WCI  27
GREAT FALLS    FAIR      35  19  52 SW12      29.99R WCI  27
MALMSTROM AFB  FAIR      35  22  60 SW13      30.00R WCI  26
HELENA         FAIR      38  23  55 SW5       30.09S
BOWMANS CRNR   FAIR      33  17  53 SW14      29.97S WCI  23
CHOTEAU          N/A     37  21  52 CALM      29.98R
FAIRFIELD      FAIR      38  21  50 S6        29.96S
POWER          FAIR      32  22  65 SW9       29.96F WCI  25
RAYNESFORD     FAIR      37  19  48 SW6       30.02R
ULM            FAIR      34  20  56 S10       30.00S WCI  26
$$

MTZ011-013-016-021-045-047-050-051-250800-
NORTH CENTRAL MONTANA

CITY           SKY/WX    TMP DP  RH WIND       PRES   REMARKS
HAVRE          FAIR      34  25  69 SW9       29.96S WCI  27
LEWISTOWN      FAIR      27  21  78 SW7       29.99S WCI  19
N BAR RANCH    FAIR      30  18  59 CALM      30.02R
CHINOOK          N/A     34  25  69 W5        29.97S
DENTON         FAIR      32  21  64 MISG      29.96R
GEYSER         FAIR      34  20  57 W10       29.98S WCI  26
GRASS RANGE    FAIR      33  22  63 SW13      29.96R WCI  24
STANFORD       FAIR      30  19  63 CALM      29.99R
WINIFRED       FAIR      35  22  59 W6        29.98R WCI  30
$$

MTZ017>020-022>027-061-062-250800-
NORTHEAST MONTANA

CITY           SKY/WX    TMP DP  RH WIND       PRES   REMARKS
GLASGOW        FAIR      31  25  78 W7        29.96R WCI  24
GLENDIVE       FAIR      34  25  69 W12       29.97R WCI  25
JORDAN           N/A     29  23  78 W6        29.98R WCI  23
SIDNEY         FAIR      36  26  67 NW15      29.92S WCI  27
WOLF POINT     FAIR      34  26  72 W9        29.95R WCI  27
MALTA          CLEAR     30  27  86 W8        29.97R WCI  23
PLENTYWOOD       N/A     30  27  86 CALM      29.90S
POPLAR           N/A     36  25  64 SW5       29.94S
SCOBEY           N/A     29  20  69 CALM      29.89R
$$

MTZ028>42-056>058-250800-
SOUTHCENTRAL AND SOUTHEAST MONTANA

CITY           SKY/WX    TMP DP  RH WIND       PRES   REMARKS
BAKER          FAIR      31  25  78 W13       29.99R WCI  21
BILLINGS       FAIR      37  23  56 VRB3      30.04R
LIVINGSTON     CLOUDY    41  19  41 W10       30.06R
MILES CITY     FAIR      33  24  69 W6        30.02R WCI  28
BIG TIMBER     CLEAR     39  18  41 SW18G26   30.04R WCI  30
FORSYTH          N/A     32  23  69 CALM      30.02R
HARLOWTON      FAIR      36  22  55 W15       30.02R WCI  27
LAUREL           N/A     32  21  64 NE3       30.05R
ROUNDUP          N/A     31  18  58 SW5       29.94R
$$

REGIONAL REPORTS...DAKOTAS

CITY           SKY/WX    TMP DP  RH WIND       PRES   REMARKS
WILLISTON      FAIR      32  24  72 VRB3      29.92R
MINOT          FAIR      30  27  88 W7        29.90R WCI  23
DICKINSON      FAIR      31  24  75 W10       29.92R WCI  22
BEACH          FAIR      34  25  69 W12       29.98R WCI  25
CROSBY         FAIR      25  25 100 SW8       29.92R WCI  16
TIOGA          FAIR      27  27 100 W5        29.92R
WATFORD CITY   FAIR      34  27  75 W12       29.91S WCI  25
BISMARCK       FAIR      36  29  75 NW3       29.92S
GRAND FORKS    CLOUDY    27  22  81 N16       29.89R WCI  15
FARGO          FAIR      31  27  85 N10       29.87R WCI  22
BUFFALO SD       N/A     31  24  75 W8        29.94R WCI  23
RAPID CITY     FAIR      32  21  64 W8        30.03R WCI  25
$$

REGIONAL REPORTS...WYOMING/IDAHO/WASHINGTON

CITY           SKY/WX    TMP DP  RH WIND       PRES   REMARKS
GILLETTE       FAIR      23  18  81 W5        30.03S
SHERIDAN       FAIR      28  22  78 N5        30.04R
BUFFALO WY     FAIR      32  19  58 W7        30.05R WCI  26
CODY           FAIR      38  24  57 VRB6      30.05R
YELLOWSTONE LA   N/A     28  20  71 CALM      30.20R
IDAHO FALLS    FAIR      39  29  67 S12       30.17R WCI  32
SALMON         FAIR      24  23  96 CALM      30.18R
BOISE          FAIR      39  28  64 SE10      30.17S
SPOKANE        FAIR      37  35  92 SE8       30.12R WCI  31
$$

REGIONAL REPORTS...ALBERTA

CITY           SKY/WX    TMP DP  RH WIND       PRES   REMARKS
EDMONTON       CLEAR     32  23  69 SW8       29.67S WCI  25
CALGARY        MOCLDY    39  21  48 SE7       29.76S
LETHBRIDGE     CLEAR     37  25  60 S20G25    29.88F WCI  27
MEDICINE HAT   CLEAR     36  27  69 SW10      29.87S WCI  28
$$

REGIONAL REPORTS...SASKATCHEWAN

CITY           SKY/WX    TMP DP  RH WIND       PRES   REMARKS
SWIFT CURRENT  CLEAR     28  27  93 SW12      29.87R WCI  18
REGINA         CLEAR     23  23 100 W3        29.89R
SASKATOON      PTCLDY    16  14  93 E2        29.87R
$$




USA.gov is the U.S. government's official web portal to all federal, state and local government web resources and services.